This demonstration page uses our WeatherBlox Daily Observations layout. Learn more.

Left ArrowRight Arrow

44.8408, -93.29828

Hourly Observations for November 2, 2020

Temp ( °F °C ) Dew Point ( °F °C ) Humidity (%) Winds ( mph kmh ) Pressure ( in mb ) Visibility ( mi km ) Precip ( " mm )
12:53 am 00:53 Clear 30 -1.1 18 -7.8 61 61 S 7 11 30.33 1027 10 16 0.00 0.00
1:53 am 01:53 Clear 30 -1.1 17 -8.3 58 58 SSW 7 11 30.31 1027 10 16 0.00 0.00
2:53 am 02:53 Clear 31 -0.6 17 -8.3 56 56 SSW 6 9 30.28 1025 10 16 0.00 0.00
3:53 am 03:53 Clear 32 0 18 -7.8 56 56 SSW 5 7 30.25 1024 10 16 0.00 0.00
4:53 am 04:53 Clear 31 -0.6 19 -7.2 61 61 SW 3 6 30.23 1024 10 16 0.00 0.00
5:53 am 05:53 Clear 33 0.6 20 -6.7 58 58 SW 10 17 30.20 1023 10 16 0.00 0.00
6:53 am 06:53 Partly Cloudy 33 0.6 20 -6.7 58 58 WSW 6 9 30.19 1022 10 16 0.00 0.00
7:53 am 07:53 Mostly Cloudy 34 1.1 21 -6.1 59 59 SW 7 11 30.18 1022 10 16 0.00 0.00
8:53 am 08:53 Mostly Cloudy 37 2.8 22 -5.6 54 54 WSW 10 17 30.17 1022 10 16 0.00 0.00
9:53 am 09:53 Mostly Cloudy 40 4.4 24 -4.4 53 53 WSW 9 15 30.17 1022 10 16 0.00 0.00
10:53 am 10:53 Mostly Cloudy 43 6.1 26 -3.3 51 51 WSW 9 15 30.14 1021 10 16 0.00 0.00
11:53 am 11:53 Partly Cloudy 47 8.3 27 -2.8 46 46 WSW 10 17 30.11 1020 10 16 0.00 0.00
12:53 pm 12:53 Mostly Sunny 52 11.1 29 -1.7 41 41 WSW 12 19 30.09 1019 10 16 0.00 0.00
1:53 pm 13:53 Mostly Sunny 56 13.3 30 -1.1 37 37 W 8 13 30.08 1019 10 16 0.00 0.00
2:53 pm 14:53 Mostly Sunny 57 13.9 32 0 39 39 W 8 13 30.06 1018 10 16 0.00 0.00
3:53 pm 15:53 Mostly Sunny 57 13.9 32 0 39 39 WSW 8 13 30.05 1018 10 16 0.00 0.00
4:53 pm 16:53 Mostly Sunny 55 12.8 32 0 42 42 WSW 6 9 30.05 1018 10 16 0.00 0.00
5:53 pm 17:53 Mostly Clear 52 11.1 31 -0.6 45 45 W 5 7 30.06 1018 10 16 0.00 0.00
6:53 pm 18:53 Mostly Clear 52 11.1 32 0 47 47 SW 5 7 30.04 1017 10 16 0.00 0.00
7:53 pm 19:53 Mostly Clear 47 8.3 32 0 56 56 SW 6 9 30.04 1017 10 16 0.00 0.00
8:53 pm 20:53 Clear 42 5.6 32 0 68 68 Calm 30.04 1017 10 16 0.00 0.00
9:53 pm 21:53 Clear 40 4.4 31 -0.6 70 70 SW 5 7 30.04 1017 10 16 0.00 0.00
10:53 pm 22:53 Clear 38 3.3 31 -0.6 76 76 Calm 30.04 1017 10 16 0.00 0.00
11:53 pm 23:53 Clear 42 5.6 32 0 68 68 SSW 5 7 30.03 1017 10 16 0.00 0.00

Powered by AerisWeather